Location: Unspecified
(0.0000°N, 0.0000°E)
Time: 17:56:24
(UTC+02:00)

AO-40 - Visible Passes

Search period start: 30 August 2015 00:00
Search period end: 09 September 2015 00:00
Orbit: 1050 x 58771 km, 9.4° (Epoch: 30 August)

Date Brightness Start Highest point End Pass type
(mag) Time Alt. Az. Time Alt. Az. Time Alt. Az.
30 Aug ? 02:32:18 79° ENE 02:32:18 79° ENE 12:45:21 10° W visible
30 Aug ? 20:43:08 10° WSW 20:48:17 44° S 20:56:44 16° ESE visible
30 Aug ? 20:43:08 10° WSW 20:48:17 44° S 20:56:40 16° ESE visible
31 Aug ? 01:06:20 10° E 15:35:04 78° SSW 15:43:23 10° ESE visible
03 Sep ? 01:23:58 10° W 02:09:25 72° ENE 12:36:33 10° W visible
03 Sep ? 20:15:26 10° WSW 20:20:31 42° S 20:30:43 10° E visible
03 Sep ? 20:15:26 10° WSW 20:20:31 42° S 15:15:51 10° ESE daylight
04 Sep ? 00:59:41 10° E 15:06:52 80° SSW 15:15:51 10° ESE visible
07 Sep ? 00:56:16 10° W 01:46:59 66° ENE 12:27:49 10° W visible
07 Sep ? 19:47:40 10° WSW 19:52:46 41° S 14:48:18 10° ESE daylight
